Showing default

COSMOS 2451, 35498

Orbit data source: Space-Track

COSMOS 2451, 35498 is a payload satellite owned by KVR (CIS) in LEO that was launched on Mon, 06 Jul 2009 UTC via an ROKOT launch vehicle from the Plesetsk Missile And Space Complex (PKMTR). Payloads include a variety of satellites, spacecraft, and rockets equipped with specific instruments for various scientific and technological missions. These include communications satellites like Starlink; space stations such as the ISS; scientific satellites like the Hubble; Earth observation satellites from companies like Planet Labs, Umbra, and HawkEye 360; GPS; miniature CubeSats for education and research; and military/defense satellites.

Loading next visibility...
COSMOS 2451 details
Identifier
35498, 2009-036A
Orbit
LEO
Last TLE update9 hours ago
Origin
Flag of CISKVR (CIS)
ManufacturerResehetnev ISS
MissionOperational Defense Communications
Bus & MotorSTRELA-3, Unknown motor
Mass225 kg wet, 225 kg dry
Launch date (UTC)
2009-07-06 (15 years ago)
Launch vehicle
ROKOT
Launch site
Plesetsk Missile And Space Complex (PKMTR)
Object type
Payload
Rocket body
Debris
Shape & HBRCyl + 1 Ant, 7 m
Radar Cross Section1.583 m², Medium (>0.1 m² and < 1m²)

Expand to show TLE details & history

TLE from 9 hours ago
0 COSMOS 2451
1 35498U 09036A   24361.54394351  .00000019  00000-0  65052-4 0  9999
2 35498  82.4881  65.9597 0005876 300.4188  59.6310 12.40856081700964
Epoch: 2024-12-26T13:03Z
Definitive object data (Epoch: 2024-12-26T13:03:16.719Z)
Latitude0.00005°
Longitude134.61822°
Altitude1,503.333 km
Speed7.114 km/s
True Right ascension04h 23m 50s
True Declination0° 00' 00"
Sunlit
Object was in full shadow at TLE epoch
Visualization TLE readout
Latitude35.51499°
Longitude-50.97551°
Altitude1,511.803 km
Speed7.11 km/s
Apparent Right ascension13h 10m 00s
Apparent Declination4° 03' 57"
Sunlit
Object is in daylight
Visualization observer readout
Local Sidereal Time20:57:12
Azimuth291.066° WNW
Elevation-17.424°
Doppler factor1
Orbital elements
Apogee altitude1,504.96 km
Perigee altitude1,495.701 km
Semi-major axis7,878.468 km
Eccentricity0.0005876
Inclination82.4881°
RAAN65.9597°
Arg. of periapsis300.4188°
True anomaly59.68912°
Mean anomaly59.631°
Eccentric anomaly59.66006°
Mean motion3.10371 °/min
BSTAR0.000065052
Orbital period115.99 mins
Loading maneuver chart data...
Loading historical data...
Loading historical data...
Loading historical data...
Loading historical data...
Loading historical data...
Loading historical data...
Loading historical data...
Other satellites on launch #36 in the year 2009 (2009-07-06 UTC)

COSMOS 2451 Visibility forecast

Observer location: undefined°, undefined

Span
Click to sort rows by Start time (UTC) header in descending order
Start Az.
Max El. time (UTC)
Max El. Az.
Max El.
End time (UTC)
End Az.
16 mins2024-12-27 04:37:11.906Z163.131° S2024-12-27 04:45:11.906Z84.378° E39.319°2024-12-27 04:53:11.906Z16.621° NNE
13 mins2024-12-27 06:36:11.906Z235.694° WSW2024-12-27 06:42:11.906Z288.285° WNW27.985°2024-12-27 06:49:11.906Z347.478° N
13 mins2024-12-27 14:50:11.906Z18.339° NNE2024-12-27 14:56:11.906Z67.321° ENE24.067°2024-12-27 15:03:11.906Z121.403° SE
15 mins2024-12-27 16:47:11.906Z344.315° N2024-12-27 16:54:11.906Z256.635° W42.474°2024-12-27 17:02:11.906Z188.349° SSW
|